Date,TemperatureHighF,TemperatureAvgF,TemperatureLowF,DewpointHighF,DewpointAvgF,DewpointLowF,HumidityHigh,HumidityAvg,HumidityLow,PressureMaxIn,PressureMinIn,WindSpeedMaxMPH,WindSpeedAvgMPH,GustSpeedMaxMPH,PrecipitationSumIn
2013-1-10,35,24,15,8,4,1,70,44,24,30.26,29.90,4,0,0,0.00
2013-1-11,16,7,-5,11,-2,-16,84,68,53,30.11,29.51,6,1,0,0.00
2013-1-12,6,-6,-16,-14,-19,-23,72,55,33,30.50,30.12,5,0,0,0.00
2013-1-13,1,-9,-21,-10,-19,-28,75,62,44,30.66,30.49,3,0,0,0.00
2013-1-14,4,-10,-24,-9,-20,-31,77,61,47,30.82,30.65,3,0,0,0.00
2013-1-15,11,2,-10,4,-9,-23,72,60,45,30.84,30.58,9,1,0,0.00
2013-1-16,34,19,7,15,9,2,80,66,46,30.83,30.60,2,0,0,0.00
2013-1-17,34,18,3,13,4,-3,87,59,30,30.82,30.66,5,0,0,0.00
2013-1-18,34,25,18,3,-2,-5,39,31,23,30.66,30.35,8,2,0,0.00
2013-1-19,39,27,20,5,-2,-10,38,29,15,30.50,30.36,4,1,0,0.00
2013-1-20,35,27,21,4,-3,-13,44,27,18,30.39,30.27,8,1,0,0.00
2013-1-21,34,27,21,9,1,-12,47,34,19,30.39,30.29,7,1,0,0.00
2013-1-22,41,31,24,0,-8,-14,24,18,14,30.41,30.32,7,2,0,0.00
2013-1-23,48,35,23,4,-5,-15,39,19,12,30.41,30.27,5,1,0,0.00
2013-1-24,39,32,23,21,11,-7,69,45,19,30.27,30.03,10,3,0,0.00
2013-1-25,38,31,24,23,20,17,76,65,53,30.28,30.17,5,1,0,0.00
2013-1-26,36,28,23,26,19,9,90,70,47,30.16,29.83,3,0,0,0.00
2013-1-27,37,27,18,24,16,8,90,66,42,29.93,29.79,6,1,0,0.00
2013-1-28,30,19,10,21,11,-1,86,70,52,29.88,29.70,5,0,0,0.00
2013-1-29,10,3,-2,2,-8,-13,78,60,41,30.35,29.79,6,1,0,0.00
2013-1-30,13,7,-2,8,0,-13,83,73,57,30.50,30.31,9,2,0,0.00
2013-1-31,23,17,13,11,8,5,82,70,57,30.58,30.43,6,2,0,0.00
2013-2-1,25,19,15,10,8,6,72,62,50,30.48,30.35,9,3,0,0.00
2013-2-2,35,24,16,6,0,-6,62,37,21,30.61,30.49,10,2,0,0.00
2013-2-3,36,26,13,4,-4,-14,42,28,16,30.49,30.10,6,1,0,0.00
2013-2-4,21,19,14,-4,-5,-7,41,34,32,30.14,30.12,4,1,0,0.00
2013-2-8,25,22,20,17,15,11,86,75,55,30.14,30.03,4,0,0,0.00
2013-2-9,22,16,7,17,8,-3,87,73,56,30.02,29.61,5,1,0,0.00
2013-2-10,17,9,5,4,-2,-6,83,60,36,30.28,29.75,6,1,0,0.00
2013-2-11,12,4,-6,5,-2,-12,82,76,66,30.49,30.28,3,0,0,0.00
2013-2-12,23,8,-7,4,-3,-13,80,60,43,30.59,30.47,7,2,0,0.00
2013-2-13,26,16,10,9,4,0,70,59,40,30.52,30.31,6,2,0,0.00
2013-2-14,23,16,11,7,4,0,77,58,42,30.42,30.24,8,2,0,0.00
2013-2-15,19,13,9,5,1,-2,77,60,43,30.66,30.42,8,3,0,0.00
2013-2-16,33,22,15,12,5,-2,58,47,39,30.66,30.29,10,2,0,0.00
2013-2-17,38,26,15,10,-3,-14,71,31,17,30.28,29.77,8,2,0,0.00
2013-2-18,19,10,-6,5,-6,-17,75,51,33,30.48,29.77,9,2,0,0.00
2013-2-19,31,12,-8,4,-8,-19,64,44,24,30.57,30.18,5,1,0,0.00
2013-2-20,28,16,5,15,6,-4,85,68,45,30.17,29.76,2,0,0,0.00
2013-2-21,22,14,8,11,7,1,85,74,60,30.07,29.76,7,1,0,0.00
2013-2-22,19,9,0,8,-1,-7,80,64,46,30.27,30.08,5,1,0,0.00
2013-2-23,30,18,4,15,4,-8,74,56,43,30.26,29.86,12,1,0,0.00
2013-2-24,15,9,1,8,3,-5,85,77,64,30.37,29.80,4,0,0,0.00
2013-2-25,27,12,-2,6,-1,-8,80,57,32,30.47,30.20,5,1,0,0.00
2013-2-26,16,10,1,4,-1,-7,77,60,50,30.43,30.00,7,1,0,0.00
2013-2-27,19,8,-3,1,-6,-11,72,55,37,30.68,30.44,6,1,0,0.00
2013-2-28,23,13,4,8,-1,-10,77,56,38,30.70,30.61,8,2,0,0.00
2013-3-1,29,20,13,13,10,5,78,64,51,30.65,30.55,9,3,0,0.00
2013-3-2,39,29,20,19,13,8,69,53,39,30.64,30.28,8,2,0,0.00
2013-3-3,37,31,22,20,14,7,84,52,35,30.27,29.79,9,3,0,0.00
2013-3-4,32,19,6,21,10,-8,86,69,43,30.33,29.76,8,1,0,0.00
2013-3-5,40,23,6,1,-8,-16,46,27,15,30.57,30.32,7,2,0,0.00
2013-3-6,44,27,12,12,3,-5,54,38,21,30.38,30.11,5,1,0,0.00
2013-3-7,44,31,19,10,5,0,52,36,19,30.10,30.01,6,1,0,0.00
2013-3-8,39,26,14,22,14,4,88,62,39,30.07,29.75,5,1,0,0.00
2013-3-9,25,19,6,21,14,0,89,80,72,30.19,29.63,7,0,0,0.00
2013-3-10,27,15,3,10,4,-3,79,62,45,30.51,30.19,11,2,0,0.00
2013-3-11,32,24,18,16,10,2,81,56,44,30.48,30.18,12,3,0,0.00
2013-3-12,36,26,20,16,14,11,81,60,44,30.41,30.22,8,2,0,0.00
2013-3-13,41,31,22,18,14,11,64,51,35,30.48,30.37,8,1,0,0.00
2013-3-14,48,36,26,16,12,10,61,41,22,30.48,30.32,6,1,0,0.00
2013-3-15,49,37,25,19,16,12,64,44,27,30.34,30.00,8,2,0,0.00
2013-3-16,36,31,24,26,20,15,83,65,48,29.99,29.77,6,1,0,0.00
2013-3-17,33,22,13,20,13,3,83,70,45,29.97,29.76,13,2,0,0.00
2013-3-18,24,18,12,12,7,0,85,64,49,30.25,29.98,6,2,0,0.00
2013-3-19,31,22,6,9,-2,-10,65,38,17,30.49,30.24,10,2,0,0.00
2013-3-20,30,16,6,18,-6,-16,67,39,21,30.48,30.01,9,1,0,0.00
2013-3-21,32,24,14,22,15,5,86,68,52,30.00,29.67,6,2,0,0.00
2013-3-22,31,18,5,13,2,-4,80,53,28,29.99,29.86,11,2,0,0.00
2013-3-23,14,6,-1,9,1,-7,86,78,69,30.48,29.88,1,0,0,0.00
2013-3-24,10,0,-10,2,-7,-16,80,72,65,30.71,30.48,4,0,0,0.00
2013-3-25,22,7,-7,2,-6,-14,75,57,33,30.75,30.66,6,1,0,0.00
2013-3-26,40,25,2,17,10,-7,75,54,33,30.67,30.21,7,2,0,0.00
2013-3-27,41,30,20,17,14,10,74,54,34,30.22,30.08,7,1,0,0.00
2013-3-28,44,29,15,22,15,8,76,58,32,30.32,30.21,7,1,0,0.00
2013-3-29,43,29,18,28,19,12,86,68,41,30.36,30.23,6,1,0,0.00
2013-3-30,43,33,23,24,19,15,86,59,32,30.35,30.13,11,1,0,0.00
2013-3-31,46,30,14,17,12,9,83,53,25,30.26,30.16,10,1,0,0.00
2013-4-1,45,30,16,27,17,10,89,62,32,30.22,30.01,5,1,0,0.00
2013-4-2,35,28,23,25,22,20,89,81,62,30.14,29.95,3,0,0,0.00
2013-4-3,40,28,15,21,16,11,87,63,38,30.38,30.14,6,1,0,0.00
2013-4-4,46,34,20,20,16,11,77,50,30,30.37,30.18,7,1,0,0.00
2013-4-5,49,36,26,27,18,12,85,50,30,30.17,29.81,7,1,0,0.00
2013-4-6,44,33,26,22,17,10,77,53,31,29.98,29.88,7,1,0,0.00
2013-4-7,38,32,26,23,17,11,71,54,43,29.90,29.84,7,2,0,0.00
2013-4-8,44,32,20,27,20,15,88,66,35,29.87,29.50,7,1,0,0.00
2013-4-9,27,14,5,23,9,0,87,79,67,30.14,29.54,3,0,0,0.00
2013-4-10,27,14,0,13,4,-5,83,66,52,30.33,30.15,7,2,0,0.00
2013-4-11,32,25,16,22,16,6,83,68,58,30.21,30.03,6,2,0,0.00
2013-4-12,36,26,19,22,14,9,85,64,39,30.13,29.99,6,1,0,0.00
2013-4-13,44,30,13,26,14,5,88,53,31,30.13,29.55,9,2,0,0.00
2013-4-14,29,22,17,25,13,-100,89,73,47,29.88,29.52,8,-16,0,0.00
2013-4-15,29,22,15,24,18,11,88,83,75,30.01,29.79,3,0,0,0.01
2013-4-16,41,24,15,27,18,12,88,77,40,30.03,29.81,6,1,0,0.00
2013-4-17,23,17,4,19,13,-1,89,85,80,30.15,29.77,1,0,0,0.00
2013-4-18,15,8,-1,5,-1,-6,82,68,54,30.66,30.15,8,2,0,0.00
2013-4-19,33,22,9,15,8,-1,66,57,45,30.66,30.26,8,2,0,0.00
2013-4-20,36,27,21,23,16,12,78,65,48,30.26,30.06,5,1,0,0.00
2013-4-21,39,30,22,21,15,12,79,57,34,30.24,30.15,6,2,0,0.01
2013-4-22,39,29,15,25,19,11,85,67,42,30.15,29.92,6,1,0,0.00
2013-4-23,25,15,9,15,8,2,83,76,62,30.49,30.04,5,1,0,0.00
2013-4-24,32,19,2,15,6,-4,80,58,37,30.58,30.47,7,1,0,0.00
2013-4-25,48,29,7,17,10,1,80,49,27,30.55,30.17,8,1,0,0.00
2013-4-26,45,34,21,17,12,6,67,42,22,30.39,30.18,4,1,0,0.00
2013-4-27,48,35,21,18,14,9,74,44,25,30.39,30.23,7,1,0,0.00
2013-4-28,53,41,27,21,17,9,62,40,26,30.24,29.95,6,1,0,0.00
2013-4-29,54,42,27,24,20,15,78,44,25,30.00,29.68,10,2,0,0.00
2013-4-30,54,46,35,28,21,17,75,37,27,29.67,29.53,9,2,0,0.00
2013-5-1,35,23,12,28,19,8,89,84,76,30.60,29.62,4,0,0,0.00
2013-5-2,29,17,0,13,5,-100,84,63,46,30.92,30.60,4,-12,0,0.00
2013-5-3,46,31,14,21,11,5,72,46,24,30.81,30.22,6,1,0,0.00
2013-5-4,43,30,16,28,20,11,89,69,41,30.31,30.11,5,1,0,0.00
2013-5-5,45,32,18,29,22,15,88,70,35,30.31,30.17,4,0,0,0.00
2013-5-6,44,31,24,32,20,-100,91,75,52,30.24,30.01,4,-41,0,0.00
2013-5-7,36,6,27,28,-74,-100,87,17,72,30.09,0.00,2,-791,0,0.00
2013-5-8,-200,0,200,-100,-100,-100,0,0,100,0.00,0.00,0,-999,0,0.00
2013-5-9,-200,0,200,-100,-100,-100,0,0,100,0.00,0.00,0,-999,0,0.00
2013-5-10,-200,0,200,-100,-100,-100,0,0,100,0.00,0.00,0,-999,0,0.00
2013-5-11,-200,0,200,-100,-100,-100,0,0,100,0.00,0.00,0,-999,0,0.00
2013-5-12,-200,0,200,-100,-100,-100,0,0,100,0.00,0.00,0,-999,0,0.00
2013-5-13,-200,0,200,-100,-100,-100,0,0,100,0.00,0.00,0,-999,0,0.00
2013-5-17,44,43,41,20,18,16,39,37,34,30.09,30.07,1,0,0,0.00
2013-5-18,53,40,32,30,22,14,84,52,30,30.09,29.83,7,1,0,0.00
2013-5-19,43,35,30,28,22,19,77,60,44,29.96,29.81,7,2,0,0.00
2013-5-20,46,35,28,30,23,19,82,62,46,30.09,29.92,8,2,0,0.00
2013-5-21,48,38,29,27,22,19,70,55,38,30.09,29.97,6,1,0,0.00
2013-5-22,58,42,26,32,24,19,80,54,25,30.01,29.88,7,1,0,0.00
2013-5-23,62,45,29,35,29,18,88,61,20,30.01,29.86,13,1,0,0.00
2013-5-24,63,48,28,34,24,15,89,48,17,29.97,29.88,6,1,0,0.00
2013-5-25,64,48,28,24,17,11,69,34,14,29.99,29.88,5,1,0,0.00
2013-5-26,66,50,32,29,19,16,62,33,15,29.91,29.73,5,1,0,0.00
2013-5-27,60,48,34,21,17,9,56,31,19,29.81,29.66,6,1,0,0.00
2013-5-28,59,44,27,27,20,13,73,42,19,29.76,29.59,7,1,0,0.00
2013-5-29,47,37,30,28,23,19,87,60,39,29.76,29.50,6,1,0,0.00
2013-5-30,46,36,29,26,22,17,86,58,33,29.98,29.74,12,2,0,0.00
2013-5-31,46,38,28,24,17,12,84,45,28,30.13,29.94,11,2,0,0.00
2013-6-1,55,42,30,25,20,14,71,44,29,30.20,30.11,10,1,0,0.00
2013-6-2,66,47,24,29,21,16,88,44,17,30.17,29.89,7,1,0,0.00
2013-6-3,65,50,33,28,24,18,61,37,20,29.89,29.73,6,1,0,0.00
2013-6-4,64,49,32,33,27,20,69,45,26,29.93,29.81,8,1,0,0.00
2013-6-5,63,46,28,41,29,19,92,59,21,30.00,29.88,8,1,0,0.00
2013-6-6,63,47,28,38,29,25,91,57,26,30.06,29.95,6,1,0,0.00
2013-6-7,59,44,30,42,32,28,94,67,36,30.04,29.89,7,1,0,0.00
2013-6-8,64,52,39,33,30,28,65,45,28,29.89,29.74,7,1,0,0.00
2013-6-9,70,56,39,31,28,23,65,36,21,29.93,29.85,6,1,0,0.00
2013-6-10,77,59,38,33,28,23,57,34,17,29.89,29.72,7,1,0,0.00
2013-6-11,72,60,46,30,23,18,46,25,14,29.80,29.64,13,2,0,0.00
2013-6-12,74,58,39,31,25,19,53,29,16,29.93,29.78,10,1,0,0.00
2013-6-13,71,56,37,37,29,20,69,39,20,29.94,29.79,7,1,0,0.00
2013-6-14,70,55,36,35,27,17,77,40,16,29.87,29.75,9,1,0,0.00
2013-6-15,68,51,28,30,25,18,77,41,18,30.00,29.84,7,1,0,0.00
2013-6-16,61,49,35,38,31,24,82,52,33,30.08,29.91,7,1,0,0.00
2013-6-17,65,46,31,40,32,26,90,62,26,30.15,30.05,7,0,0,0.03
2013-6-18,68,50,33,41,31,25,90,55,20,30.13,29.84,8,1,0,0.00
2013-6-19,71,52,29,38,22,12,87,41,12,29.90,29.71,7,1,0,0.00
2013-6-20,71,54,33,26,19,11,53,27,15,29.82,29.70,6,1,0,0.00
2013-6-21,71,54,34,24,19,15,53,28,14,29.82,29.71,7,1,0,0.00
2013-6-22,69,54,37,28,20,14,50,27,17,29.79,29.65,9,1,0,0.00
2013-6-23,67,50,31,30,23,15,60,36,18,29.85,29.75,5,0,0,0.00
2013-6-24,67,51,32,38,24,18,86,43,17,29.85,29.78,8,1,0,0.00
2013-6-25,69,54,38,32,26,18,48,34,25,29.95,29.78,6,1,0,0.00
2013-6-26,78,59,37,36,31,24,67,37,20,30.00,29.89,7,1,0,0.00
2013-6-27,79,63,44,39,32,27,56,33,19,30.04,29.93,5,1,0,0.00
2013-6-28,78,60,40,42,34,25,76,43,15,30.05,29.92,9,0,0,0.00
2013-6-29,72,53,40,48,40,33,88,64,29,30.06,29.90,6,0,0,0.13
2013-6-30,68,50,37,48,40,34,94,71,33,30.14,29.99,10,1,0,0.09
2013-7-1,69,49,34,46,38,31,94,69,26,30.18,30.07,5,0,0,0.05
2013-7-2,69,51,34,45,36,29,94,65,24,30.16,30.01,7,1,0,0.04
2013-7-3,70,50,33,43,36,31,94,64,23,30.06,29.88,6,1,0,0.02
2013-7-4,72,56,42,44,38,33,89,53,26,29.94,29.77,5,1,0,0.04
2013-7-5,68,55,40,46,42,37,93,65,39,29.82,29.70,8,1,0,0.01
2013-7-6,69,54,44,50,43,38,89,68,33,29.86,29.76,5,1,0,0.09
2013-7-7,68,54,42,49,43,39,93,71,38,29.98,29.84,5,0,0,0.07
2013-7-8,71,54,38,50,39,32,95,63,28,30.04,29.97,4,1,0,0.07
2013-7-9,72,56,40,48,37,32,77,53,28,30.09,30.00,7,0,0,0.01
2013-7-10,71,56,42,51,42,36,83,61,37,30.09,29.90,4,0,0,0.05
2013-7-11,76,57,39,49,41,36,93,60,25,30.00,29.76,4,0,0,0.00
2013-7-12,69,55,48,52,42,-100,85,65,36,29.87,29.69,4,-11,0,0.10
2013-7-13,70,55,46,52,46,42,91,76,37,30.00,29.87,4,0,0,0.11
2013-7-14,66,51,40,51,45,38,94,80,49,30.07,29.97,3,0,0,0.20
2013-7-15,61,49,42,51,46,40,95,88,63,30.07,29.96,3,0,0,0.16
2013-7-16,66,50,40,47,35,-100,94,68,43,30.12,30.00,4,-52,0,0.00
2013-7-17,47,40,36,42,36,34,94,87,79,30.13,30.09,0,0,0,0.00
2013-7-18,50,49,47,44,34,-100,85,77,78,30.10,30.05,0,0,0,0.00
2013-7-19,64,52,45,49,45,41,92,76,49,30.07,29.94,5,0,0,0.06
2013-7-20,73,56,39,45,38,30,94,59,21,30.02,29.80,6,1,0,0.00
2013-7-21,74,58,39,44,34,25,92,50,17,29.85,29.76,6,1,0,0.00
2013-7-22,75,58,40,37,30,22,72,40,16,29.92,29.82,4,1,0,0.00
2013-7-23,76,59,40,39,28,20,56,34,16,29.97,29.86,5,1,0,0.00
2013-7-24,68,53,42,49,41,37,88,66,42,30.00,29.82,4,0,0,0.02
2013-7-25,63,49,39,47,42,37,93,77,43,30.19,29.97,4,1,0,0.23
2013-7-26,67,51,35,48,40,33,95,71,32,30.22,30.12,2,0,0,0.00
2013-7-27,67,52,37,47,41,34,94,70,38,30.16,29.85,4,0,0,0.14
2013-7-28,58,50,45,48,44,39,94,81,53,29.90,29.77,6,0,0,0.13
2013-7-29,65,52,41,45,41,37,87,67,42,30.05,29.88,7,1,0,0.00
2013-7-30,67,54,37,40,37,33,89,57,32,30.17,30.05,8,1,0,0.00
2013-7-31,70,55,37,41,36,31,85,53,28,30.20,30.04,4,0,0,0.00
2013-8-1,68,53,38,46,39,36,92,63,35,30.07,29.91,9,1,0,0.01
2013-8-2,71,59,47,43,39,33,69,50,27,29.94,29.83,6,1,0,0.00
2013-8-3,71,55,41,44,39,36,86,60,30,30.08,29.89,4,0,0,0.00
2013-8-4,71,53,37,47,40,34,93,66,30,30.08,29.98,5,0,0,0.03
2013-8-5,67,49,38,50,41,35,93,76,36,30.06,29.96,5,0,0,0.37
2013-8-6,68,50,40,44,40,34,94,71,29,30.05,29.97,5,0,0,0.02
2013-8-7,53,44,39,45,40,34,92,85,65,30.10,29.98,1,0,0,0.49
2013-8-8,61,47,39,41,37,34,92,70,37,30.13,30.01,7,1,0,0.03
2013-8-9,57,45,34,42,37,32,92,76,48,30.26,30.11,2,0,0,0.00
2013-8-10,66,49,30,43,33,26,94,60,22,30.27,30.13,4,0,0,0.01
2013-8-11,64,49,38,45,37,33,87,64,40,30.14,29.99,4,0,0,0.01
2013-8-12,61,47,35,43,38,32,94,72,41,30.17,30.09,4,0,0,0.04
2013-8-13,64,48,32,42,35,30,94,64,31,30.18,30.08,6,1,0,0.00
2013-8-14,65,50,34,37,31,27,90,53,26,30.16,30.08,6,1,0,0.00
2013-8-15,69,52,34,31,28,26,74,44,22,30.14,30.03,5,1,0,0.00
2013-8-16,72,53,33,36,29,26,76,45,19,30.13,30.06,6,0,0,0.00
2013-8-17,73,55,37,37,30,28,70,42,21,30.13,29.95,4,0,0,0.00
2013-8-18,70,51,39,47,37,29,90,63,30,30.12,29.94,5,0,0,0.06
2013-8-19,71,53,36,47,38,34,92,63,26,30.13,30.01,5,0,0,0.05
2013-8-20,74,55,37,42,37,33,88,55,24,30.05,29.93,3,0,0,0.00
2013-8-21,69,54,41,48,40,34,81,61,36,30.04,29.90,2,0,0,0.01
2013-8-22,64,53,44,51,44,37,90,72,50,30.08,29.95,2,0,0,0.07
2013-8-23,65,53,38,52,42,36,94,71,39,30.07,29.87,9,0,0,0.05
2013-8-24,66,47,39,48,30,-100,90,66,38,30.06,29.90,3,-73,0,0.02
2013-8-25,63,51,40,48,44,38,94,78,49,30.12,30.03,4,0,0,0.07
2013-8-26,69,53,43,51,45,41,94,77,43,30.11,29.98,5,0,0,0.10
2013-8-27,70,54,40,51,42,38,100,69,34,30.09,29.96,4,0,0,0.01
2013-8-28,74,55,40,48,41,32,92,66,22,30.07,29.93,6,0,0,0.14
2013-8-29,67,51,39,53,44,37,95,79,46,30.23,30.05,7,0,0,0.14
2013-8-30,66,54,46,49,45,42,88,73,45,30.18,30.01,2,0,0,0.05
2013-8-31,65,52,44,49,45,40,90,77,43,30.05,29.96,2,0,0,0.02
2013-9-1,46,45,44,44,43,42,93,92,90,30.06,30.01,0,0,0,0.00
2013-9-4,58,50,44,53,48,42,93,90,80,30.23,30.11,0,0,0,0.01
2013-9-5,71,55,42,49,43,36,95,68,28,30.21,30.04,4,0,0,0.01
2013-9-6,73,56,40,44,40,35,92,60,25,30.09,29.94,6,0,0,0.00
2013-9-7,72,55,38,44,40,35,90,60,27,30.01,29.89,5,0,0,0.01
2013-9-8,67,54,40,45,40,33,88,63,28,29.94,29.75,5,0,0,0.00
2013-9-9,64,51,39,46,41,36,92,72,43,29.85,29.72,5,0,0,0.00
2013-9-10,48,46,44,47,45,42,95,93,89,30.09,29.85,4,0,0,0.68
2013-9-11,52,47,44,49,45,43,96,93,85,30.12,30.02,3,0,0,0.25
2013-9-12,54,47,44,49,45,42,96,92,79,30.16,30.02,0,0,0,0.77
2013-9-13,55,47,41,49,44,38,96,88,61,30.02,29.81,1,0,0,0.40
2013-9-14,52,41,37,45,39,35,95,91,74,29.92,29.88,0,0,0,0.03
2013-9-28,36,31,28,20,18,15,63,59,51,30.30,30.29,0,0,0,0.00
2013-9-29,55,42,28,21,16,12,61,37,24,30.29,30.05,6,1,0,0.00
2013-9-30,65,50,39,36,26,18,57,40,30,30.04,29.78,8,2,0,0.00
2013-10-1,64,45,28,30,24,19,78,49,20,30.00,29.85,7,0,0,0.00
2013-10-2,60,42,27,27,22,19,77,50,23,30.02,29.87,2,0,0,0.00
2013-10-3,57,42,29,24,21,18,69,46,23,29.90,29.61,7,1,0,0.00
2013-10-4,40,26,18,26,13,5,80,58,40,30.27,29.56,8,2,0,0.01
2013-10-5,38,26,17,9,5,3,64,43,25,30.54,30.27,7,2,0,0.00
2013-10-6,54,37,24,25,17,5,64,46,32,30.52,30.36,11,1,0,0.00
2013-10-7,64,43,25,21,15,9,63,38,15,30.36,30.04,5,0,0,0.00
2013-10-8,59,42,30,23,19,14,61,42,18,30.04,29.75,5,0,0,0.00
2013-10-9,53,38,26,26,22,19,80,56,29,29.98,29.83,5,0,0,0.00
2013-10-10,40,32,27,33,24,14,87,72,54,29.97,29.62,13,1,0,0.00
2013-10-11,34,29,27,21,16,-100,76,64,57,30.19,29.65,12,-18,0,0.00
2013-10-12,47,31,17,22,15,9,82,55,26,30.36,30.19,4,0,0,0.00
2013-10-13,50,34,20,30,23,16,88,69,33,30.30,29.99,7,0,0,0.00
2013-10-14,37,29,25,26,21,15,91,72,51,30.23,29.81,8,1,0,0.01
2013-10-15,31,24,19,24,19,14,89,80,60,30.32,30.20,3,0,0,0.01
2013-10-16,33,25,18,19,15,5,90,68,44,30.32,30.24,9,2,0,0.03
2013-10-17,39,28,18,18,9,2,69,46,27,30.30,30.10,6,1,0,0.00
2013-10-18,29,23,18,19,10,3,84,60,41,30.41,30.07,9,1,0,0.01
2013-10-19,41,30,22,18,13,6,62,49,37,30.39,30.11,7,2,0,0.01
2013-10-20,41,31,24,21,16,12,82,53,39,30.13,29.95,6,1,0,0.00
2013-10-21,40,29,17,17,14,8,83,56,35,30.40,30.13,9,1,0,0.00
2013-10-22,50,35,26,21,18,15,65,50,29,30.41,30.23,5,0,0,0.00
2013-10-23,53,36,25,20,16,13,65,45,23,30.29,30.19,5,0,0,0.00
2013-10-24,53,35,21,19,15,12,73,48,23,30.35,30.24,4,0,0,0.00
2013-10-25,47,35,25,26,20,14,71,54,34,30.34,30.19,4,0,0,0.00
2013-10-26,49,34,21,23,18,14,84,57,29,30.42,30.32,4,0,0,0.00
2013-10-27,47,34,25,20,16,11,64,48,29,30.33,29.98,6,1,0,0.00
2013-10-28,45,31,21,25,17,12,81,58,31,30.02,29.91,6,0,0,0.00
2013-10-29,40,32,26,25,16,11,90,55,34,30.01,29.80,7,1,0,0.00
2013-10-30,34,23,14,23,12,8,88,65,41,30.04,29.80,7,1,0,0.12
2013-10-31,29,22,19,17,12,8,78,63,52,30.23,30.02,9,2,0,0.01
2013-11-1,31,26,22,18,14,1,84,62,31,30.47,30.19,8,2,0,0.02
2013-11-2,50,34,15,11,4,-3,60,30,15,30.47,30.00,6,0,0,0.00
2013-11-3,43,32,20,21,12,0,85,45,29,30.00,29.62,7,1,0,0.00
2013-11-4,36,23,9,17,11,4,92,64,32,30.06,29.80,5,1,0,0.03
2013-11-5,23,16,8,16,4,-10,88,62,39,30.51,29.99,7,1,0,0.01
2013-11-6,29,21,11,12,7,-10,65,55,37,30.71,30.50,10,2,0,0.00
2013-11-7,44,32,20,19,14,9,66,50,34,30.68,30.22,6,1,0,0.00
2013-11-8,43,35,26,17,13,8,59,41,32,30.21,29.88,10,2,0,0.00
2013-11-9,46,34,25,17,13,8,60,42,28,30.32,30.15,5,0,0,0.00
2013-11-10,46,34,26,17,14,8,60,44,29,30.37,30.29,5,0,0,0.00
2013-11-11,45,32,24,16,13,11,62,47,28,30.58,30.33,6,0,0,0.00
2013-11-12,46,30,22,17,12,5,68,50,27,30.70,30.58,3,0,0,0.00
2013-11-13,45,35,24,15,10,3,50,36,25,30.62,30.11,6,1,0,0.00
2013-11-14,39,29,16,18,10,-1,71,47,20,30.11,29.94,7,0,0,0.00
2013-11-15,38,28,17,22,12,0,89,56,34,29.95,29.63,5,1,0,0.00
2013-11-16,31,24,19,20,14,10,88,69,45,29.70,29.51,10,3,0,0.03
2013-11-17,30,22,17,14,12,5,85,66,49,30.38,29.68,12,4,0,0.01
2013-11-18,45,29,17,13,6,0,60,41,20,30.48,30.27,6,1,0,0.07
2013-11-19,40,28,17,20,13,4,71,54,36,30.27,29.94,10,1,0,0.00
2013-11-20,37,29,22,22,17,14,86,62,39,29.98,29.89,6,1,0,0.00
2013-11-21,26,23,11,23,20,8,90,88,85,30.45,29.95,1,0,0,0.00
2013-11-22,23,16,10,19,12,7,88,86,84,30.81,30.46,0,0,0,0.00
2013-11-23,20,17,14,15,13,10,88,85,79,30.81,30.59,0,0,0,0.00
2013-11-24,30,21,10,24,17,7,91,84,80,30.58,30.16,6,1,0,0.00
2013-11-25,27,18,10,17,12,6,86,77,66,30.59,30.17,6,1,0,0.01
2013-11-26,29,16,5,14,8,1,87,72,52,30.77,30.59,4,0,0,0.03
2013-11-27,40,22,9,18,11,5,83,63,35,30.69,30.44,4,0,0,0.09
2013-11-28,35,19,8,17,10,3,84,68,42,30.55,30.42,2,0,0,0.02
2013-11-29,35,25,10,14,9,3,78,52,38,30.54,30.44,6,1,0,0.00
2013-11-30,35,25,14,8,4,0,61,42,30,30.47,30.33,5,1,0,0.01
2013-12-1,32,26,15,18,9,2,73,51,40,30.40,30.15,11,4,0,0.00
2013-12-2,34,28,25,19,16,13,75,63,49,30.15,29.81,12,4,0,0.00
2013-12-3,28,24,21,22,18,13,89,79,55,29.81,29.52,1,0,0,0.00
2013-12-4,23,12,-10,20,7,-17,89,80,69,30.03,29.39,4,0,0,0.00
2013-12-5,6,-8,-19,-4,-15,-25,80,72,59,30.58,30.03,1,0,0,0.01
2013-12-6,6,-8,-19,-3,-16,-26,80,71,59,30.82,30.57,2,0,0,0.00
2013-12-7,9,0,-12,3,-5,-18,83,78,73,30.80,30.19,1,0,0,0.00
2013-12-8,6,1,-10,1,-7,-17,83,71,56,30.37,30.02,6,1,0,0.00
2013-12-9,8,-2,-11,-7,-14,-18,72,59,50,30.89,30.36,10,2,0,0.00
2013-12-10,24,15,6,8,2,-6,71,58,50,30.85,30.46,13,4,0,0.00
2013-12-11,27,19,6,3,-2,-7,70,42,26,30.70,30.49,6,1,0,0.00
2013-12-12,41,25,9,7,-1,-8,54,33,19,30.68,30.20,6,1,0,0.04
2013-12-13,30,22,13,8,5,-2,71,48,32,30.27,29.95,6,1,0,0.01
2013-12-14,25,17,8,13,4,-1,76,58,39,30.65,30.23,6,1,0,0.00
2013-12-15,34,26,18,14,10,7,68,54,34,30.59,30.43,10,3,0,0.00
2013-12-16,37,30,27,15,10,3,54,44,33,30.43,30.37,9,3,0,0.00
2013-12-17,40,30,22,14,9,5,56,42,31,30.51,30.35,8,1,0,0.01
2013-12-18,44,35,20,10,8,5,58,33,24,30.34,29.93,8,3,0,0.00